DW7304 Weather Reports


Display with metric or nautical units.
time (UTC)temp
F
wind
direction
speed
MPH
gust
MPH
rain 1hr
in
rain 24hr
in
rain mn
in
humidity
%
barometer
mb
20260902030004 65 76 15.0 22.0 0.00 0.00 0.00 60 1017.0
20260902025403 66 75 14.0 22.0 0.00 0.00 0.00 60 1016.9
20260902024503 66 65 13.0 23.0 0.00 0.00 0.00 60 1017.0
20260902023603 66 66 12.0 18.0 0.00 0.00 0.00 60 1017.0
20260902022703 66 76 11.0 19.0 0.00 0.00 0.00 59 1017.0
20260902021803 66 78 12.0 21.0 0.00 0.00 0.00 59 1017.0
20260902020903 67 77 13.0 20.0 0.00 0.00 0.00 58 1017.0
20260902020003 67 77 14.0 20.0 0.00 0.00 0.00 58 1017.0
20260902015403 67 78 15.0 22.0 0.00 0.00 0.00 58 1017.0
20260902014503 67 76 15.0 21.0 0.00 0.00 0.00 59 1016.9
20260902013603 67 77 15.0 24.0 0.00 0.00 0.00 59 1016.9
20260902012703 66 77 14.0 24.0 0.00 0.00 0.00 59 1016.9
20260902012017 66 85 13.0 21.0 0.00 0.00 0.00 59 1017.1
20260902010903 66 81 15.0 22.0 0.00 0.00 0.00 59 1017.2
20260902010003 66 77 14.0 22.0 0.00 0.00 0.00 60 1017.2
20260902005403 66 77 13.0 22.0 0.00 0.00 0.00 60 1017.3
20260902004716 66 74 11.0 17.0 0.00 0.00 0.00 60 1017.3
20260902003603 66 66 12.0 21.0 0.00 0.00 0.00 61 1017.4
20260902002703 66 68 13.0 21.0 0.00 0.00 0.00 61 1017.4
20260902001803 66 72 12.0 20.0 0.00 0.00 0.00 61 1017.5
20260902000903 66 74 12.0 20.0 0.00 0.00 0.00 61 1017.5
20260902000004 66 72 12.0 18.0 0.00 0.00 0.00 61 1017.8
20260901235403 66 70 11.0 19.0 0.00 0.00 0.00 61 1017.8
20260901234503 67 70 12.0 19.0 0.00 0.00 0.00 60 1017.8
20260901233603 67 67 12.0 20.0 0.00 0.00 0.00 59 1017.8
20260901232917 67 64 12.0 20.0 0.00 0.00 0.00 59 1017.8
20260901232018 67 67 12.0 23.0 0.00 0.00 0.00 59 1017.9
20260901230903 67 66 7.0 18.0 0.00 0.00 0.00 60 1018.0
20260901230004 67 66 4.0 13.0 0.00 0.00 0.00 60 1018.2
20260901225403 67 53 3.0 9.0 0.00 0.00 0.00 59 1018.2
20260901224503 68 54 8.0 17.0 0.00 0.00 0.00 58 1018.2
20260901223603 68 64 10.0 17.0 0.00 0.00 0.00 58 1017.8
20260901222703 68 65 11.0 21.0 0.00 0.00 0.00 58 1017.8
20260901221803 68 64 12.0 20.0 0.00 0.00 0.00 58 1017.4
20260901220903 68 76 10.0 18.0 0.00 0.00 0.00 58 1017.4
20260901220004 68 83 12.0 20.0 0.00 0.00 0.00 57 1017.3
20260901215403 68 76 12.0 20.0 0.00 0.00 0.00 57 1017.3
20260901214503 68 71 11.0 19.0 0.00 0.00 0.00 57 1017.2
20260901213604 68 68 11.0 19.0 0.00 0.00 0.00 57 1017.2
20260901212703 68 57 12.0 20.0 0.00 0.00 0.00 57 1017.2
20260901211803 68 71 12.0 19.0 0.00 0.00 0.00 57 1017.2
20260901210903 69 71 12.0 20.0 0.00 0.00 0.00 57 1017.3
20260901210004 69 68 11.0 18.0 0.00 0.00 0.00 57 1017.2
20260901205403 69 68 12.0 18.0 0.00 0.00 0.00 57 1017.2
20260901204503 69 73 12.0 22.0 0.00 0.00 0.00 57 1017.1
20260901203603 69 77 12.0 20.0 0.00 0.00 0.00 57 1017.2
20260901202703 69 78 11.0 20.0 0.00 0.00 0.00 57 1017.1
20260901201803 69 65 11.0 21.0 0.00 0.00 0.00 57 1017.3
20260901200903 69 69 12.0 20.0 0.00 0.00 0.00 57 1017.4
20260901200003 69 66 10.0 19.0 0.00 0.00 0.00 57 1017.3
20260901195403 69 67 10.0 18.0 0.00 0.00 0.00 57 1017.3
20260901194503 69 68 10.0 18.0 0.00 0.00 0.00 57 1017.3
20260901193603 69 63 10.0 17.0 0.00 0.00 0.00 56 1017.3
20260901192703 69 73 9.0 17.0 0.00 0.00 0.00 56 1017.2
20260901191803 69 70 9.0 17.0 0.00 0.00 0.00 56 1017.1
20260901190903 70 74 9.0 15.0 0.00 0.00 0.00 56 1017.0
20260901190004 70 77 10.0 15.0 0.00 0.00 0.00 56 1017.0
20260901185403 70 76 9.0 17.0 0.00 0.00 0.00 56 1017.0
20260901184503 70 82 10.0 18.0 0.00 0.00 0.00 56 1016.9
20260901183603 70 75 10.0 18.0 0.00 0.00 0.00 56 1016.9
20260901182703 70 78 10.0 16.0 0.00 0.00 0.00 57 1016.7
20260901181803 70 81 10.0 17.0 0.00 0.00 0.00 57 1016.7
20260901180904 70 82 8.0 15.0 0.00 0.00 0.00 58 1016.8
20260901180003 70 76 8.0 13.0 0.00 0.00 0.00 58 1016.7
20260901175403 70 79 8.0 14.0 0.00 0.00 0.00 58 1016.5
20260901174503 70 69 8.0 13.0 0.00 0.00 0.00 58 1016.6
20260901173603 71 66 7.0 15.0 0.00 0.00 0.00 57 1016.5
20260901172703 71 65 7.0 13.0 0.00 0.00 0.00 56 1016.5
20260901171804 72 63 6.0 14.0 0.00 0.00 0.00 56 1016.5
20260901170903 72 62 6.0 14.0 0.00 0.00 0.00 55 1016.6
20260901170003 73 60 6.0 11.0 0.00 0.00 0.00 55 1016.5
20260901165618 73 58 6.0 13.0 0.00 0.00 0.00 54 1016.5
20260901164503 74 63 5.0 10.0 0.00 0.00 0.00 54 1016.6
20260901163603 75 72 4.0 10.0 0.00 0.00 0.00 53 1016.6
20260901162703 75 71 4.0 10.0 0.00 0.00 0.00 52 1016.6
20260901162017 75 65 5.0 15.0 0.00 0.00 0.00 53 1016.6
20260901160903 76 65 6.0 12.0 0.00 0.00 0.00 52 1016.6
20260901160218 76 65 6.0 12.0 0.00 0.00 0.00 52 1016.7
20260901155618 76 57 5.0 12.0 0.00 0.00 0.00 53 1016.7
20260901154503 77 68 4.0 11.0 0.00 0.00 0.00 52 1016.9
20260901153603 76 59 5.0 12.0 0.00 0.00 0.00 52 1016.9
20260901152703 77 57 4.0 12.0 0.00 0.00 0.00 52 1016.9
20260901151803 77 63 5.0 12.0 0.00 0.00 0.00 51 1017.0
20260901150903 77 77 4.0 11.0 0.00 0.00 0.00 51 1017.0
20260901150004 77 76 5.0 11.0 0.00 0.00 0.00 51 1017.0
20260901145403 77 55 4.0 11.0 0.00 0.00 0.00 52 1017.0
20260901144717 78 48 4.0 9.0 0.00 0.00 0.00 51 1017.0
20260901143603 77 77 6.0 13.0 0.00 0.00 0.00 52 1017.0
20260901142917 77 79 6.0 13.0 0.00 0.00 0.00 51 1017.0
20260901141803 77 57 5.0 13.0 0.00 0.00 0.00 52 1017.0
20260901140903 77 93 5.0 13.0 0.00 0.00 0.00 52 1017.1
20260901140004 77 79 6.0 14.0 0.00 0.00 0.00 53 1017.0
20260901135403 77 47 5.0 14.0 0.00 0.00 0.00 52 1017.1
20260901134503 76 62 3.0 7.0 0.00 0.00 0.00 54 1017.5
20260901133603 76 64 4.0 10.0 0.00 0.00 0.00 51 1017.4
20260901132703 77 47 5.0 11.0 0.00 0.00 0.00 51 1017.4
20260901132016 77 38 5.0 15.0 0.00 0.00 0.00 52 1017.5
20260901130903 77 33 5.0 14.0 0.00 0.00 0.00 51 1017.4
20260901130004 77 56 4.0 13.0 0.00 0.00 0.00 52 1017.7
20260901125403 76 66 4.0 15.0 0.00 0.00 0.00 52 1017.7
20260901124503 76 64 6.0 13.0 0.00 0.00 0.00 53 1017.9
20260901123603 74 58 6.0 14.0 0.00 0.00 0.00 54 1017.8
20260901122703 73 45 6.0 14.0 0.00 0.00 0.00 53 1017.9
20260901121803 74 42 6.0 15.0 0.00 0.00 0.00 52 1017.8
20260901120903 74 67 5.0 15.0 0.00 0.00 0.00 53 1018.0
20260901120003 74 78 6.0 11.0 0.00 0.00 0.00 52 1018.1
20260901115403 74 62 6.0 16.0 0.00 0.00 0.00 52 1017.9
20260901114503 74 61 7.0 13.0 0.00 0.00 0.00 50 1017.9
20260901113603 75 60 7.0 15.0 0.00 0.00 0.00 51 1018.0
20260901112703 74 67 8.0 15.0 0.00 0.00 0.00 50 1018.0
20260901111803 74 68 7.0 11.0 0.00 0.00 0.00 50 1017.9
20260901110903 75 79 6.0 14.0 0.00 0.00 0.00 51 1017.9
20260901110004 75 84 8.0 18.0 0.00 0.00 0.00 52 1018.0
20260901105403 74 72 8.0 18.0 0.00 0.00 0.00 53 1018.0
20260901104503 73 68 10.0 20.0 0.00 0.00 0.00 53 1018.2
20260901103817 74 68 10.0 21.0 0.00 0.00 0.00 51 1018.1
20260901102703 73 69 9.0 17.0 0.00 0.00 0.00 53 1018.2
20260901101803 72 65 11.0 19.0 0.00 0.00 0.00 55 1018.2
20260901100903 71 81 10.0 20.0 0.00 0.00 0.00 55 1018.3
20260901100004 71 71 12.0 22.0 0.00 0.00 0.00 54 1018.1
20260901095403 71 72 13.0 22.0 0.00 0.00 0.00 55 1018.2
20260901094503 71 75 13.0 20.0 0.00 0.00 0.00 56 1018.2
20260901093603 71 80 13.0 21.0 0.00 0.00 0.00 55 1018.3
20260901092918 70 86 13.0 21.0 0.00 0.00 0.00 57 1018.4
20260901091803 70 70 13.0 26.0 0.00 0.00 0.00 58 1018.2
20260901091118 69 74 14.0 26.0 0.00 0.00 0.00 60 1018.1
20260901090003 68 77 13.0 19.0 0.00 0.00 0.00 61 1018.2
20260901085403 68 75 14.0 22.0 0.00 0.00 0.00 60 1018.2
20260901084503 68 71 13.0 21.0 0.00 0.00 0.00 61 1018.1
20260901083603 68 76 13.0 20.0 0.00 0.00 0.00 61 1017.9
20260901082703 68 74 13.0 28.0 0.00 0.00 0.00 62 1018.0
20260901081803 67 78 12.0 20.0 0.00 0.00 0.00 62 1018.0
20260901080903 67 76 13.0 23.0 0.00 0.00 0.00 62 1017.9
20260901080217 67 73 14.0 23.0 0.00 0.00 0.00 61 1017.9
20260901075403 67 78 14.0 24.0 0.00 0.00 0.00 62 1017.5
20260901074503 67 75 15.0 25.0 0.00 0.00 0.00 62 1017.4
20260901073603 66 75 14.0 24.0 0.00 0.00 0.00 64 1017.2
20260901072703 66 77 14.0 21.0 0.00 0.00 0.00 63 1017.3
20260901071803 66 74 15.0 22.0 0.00 0.00 0.00 63 1017.2
20260901070903 65 77 15.0 24.0 0.00 0.00 0.00 64 1017.1
20260901070004 65 70 14.0 22.0 0.00 0.00 0.00 65 1017.2
20260901065403 65 74 15.0 22.0 0.00 0.00 0.00 64 1017.0
20260901064503 65 82 14.0 21.0 0.00 0.00 0.00 63 1017.1
20260901063603 65 74 14.0 24.0 0.00 0.00 0.00 63 1017.1
20260901062703 65 74 14.0 21.0 0.00 0.00 0.00 62 1016.9
20260901061803 65 74 15.0 25.0 0.00 0.00 0.00 64 1017.0
20260901060903 65 71 15.0 30.0 0.00 0.00 0.00 65 1017.0
20260901060003 65 66 14.0 28.0 0.00 0.00 0.00 65 1016.8
20260901055403 65 71 15.0 24.0 0.00 0.00 0.00 65 1016.9
20260901054503 65 76 16.0 24.0 0.00 0.00 0.00 65 1016.9
20260901053603 65 74 16.0 24.0 0.00 0.00 0.00 65 1016.8
20260901052703 65 71 16.0 25.0 0.00 0.00 0.00 66 1016.6
20260901051808 65 78 17.0 26.0 0.00 0.00 0.00 66 1016.6
20260901050903 65 78 17.0 27.0 0.00 0.00 0.00 65 1016.4
20260901050004 65 78 15.0 21.0 0.00 0.00 0.00 64 1016.1
20260901045403 65 78 14.0 22.0 0.00 0.00 0.00 64 1016.1
20260901044505 65 74 14.0 24.0 0.00 0.00 0.00 65 1016.1
20260901043603 65 71 16.0 30.0 0.00 0.00 0.00 65 1016.0
20260901042703 65 70 15.0 23.0 0.00 0.00 0.00 64 1015.9
20260901041803 66 76 15.0 23.0 0.00 0.00 0.00 63 1015.7
20260901040903 66 76 15.0 22.0 0.00 0.00 0.00 61 1015.6
20260901040004 67 78 14.0 28.0 0.00 0.00 0.00 60 1015.5
20260901035404 67 77 14.0 21.0 0.00 0.00 0.00 59 1015.6
20260901034503 67 78 12.0 20.0 0.00 0.00 0.00 60 1015.5
20260901033603 67 78 11.0 21.0 0.00 0.00 0.00 59 1015.6
20260901032703 67 78 13.0 26.0 0.00 0.00 0.00 59 1015.6
20260901031803 67 78 13.0 21.0 0.00 0.00 0.00 59 1015.3
20260901030903 67 76 12.0 19.0 0.00 0.00 0.00 59 1015.3